Weather History for KNFL - January, 2013

Change the Weather History Date:

Monday, January 21, 2013

  Actual Average Record
Temperature  
Mean Temperature 21 °F -  
Max Temperature 39 °F 45 °F 66 °F (1950)
Min Temperature 3 °F 20 °F -19 °F (1937)
Degree Days  
Heating Degree Days 44    
Moisture  
Dew Point 11 °F    
Average Humidity 69    
Maximum Humidity 88    
Minimum Humidity 38    
Precipitation  
Precipitation 0.00 in - - ()
Sea Level Pressure  
Sea Level Pressure 30.26 in    
Wind  
Wind Speed 3 mph (ENE)    
Max Wind Speed 7 mph    
Max Gust Speed -    
Visibility 9 miles    
Events      
Averages and records for this station are not official NWS values.
T = Trace of Precipitation, MM = Missing Value Source: NWS Daily Summary

Daily Weather History Graph

Daily Weather History Graph

Search for Another Location

Airport or City:

Trip Planner

Search our weather history database for the weather conditions in past years. The results will help you decide how hot, cold, wet, or windy it might be!

Date:

Astronomy

Jan. 21, 2013 Rise Set
Actual Time 7:10 AM PST 5:02 PM PST
Civil Twilight 6:41 AM PST 5:31 PM PST
Nautical Twilight 6:08 AM PST 6:04 PM PST
Astronomical Twilight 5:36 AM PST 6:36 PM PST
Moon 12:46 PM PST (1/21) 2:42 AM PST (1/21)
Length of Visible Light 10h 50m
Length of Day
9h 52m
Waxing Gibbous, 76% of the Moon is Illuminated
Jan 21
Waxing Gibbous
Jan 26
Full
Feb 3
Last Quarter
Feb 9
New
Feb 17
First Quarter

Hourly Weather History & Observations

Time (PST) Temp. Windchill Dew Point Humidity Pressure Visibility Wind Dir Wind Speed Gust Speed Precip Events Conditions
12:56 AM 9.0 °F 2.4 °F 6.1 °F 88% 30.30 in 10.0 mi NE 3.5 mph - N/A   Clear
1:56 AM 7.0 °F 0.1 °F 3.9 °F 87% 30.31 in 10.0 mi South 3.5 mph - N/A   Clear
2:56 AM 5.0 °F -4.1 °F 1.9 °F 87% 30.30 in 9.0 mi SSE 4.6 mph - N/A   Clear
3:56 AM 6.1 °F - 3.0 °F 87% 30.30 in 7.0 mi Calm Calm - N/A   Clear
4:56 AM 6.1 °F - 3.0 °F 87% 30.30 in 7.0 mi Calm Calm - N/A   Clear
5:56 AM 7.0 °F - 1.9 °F 80% 30.29 in 7.0 mi Calm Calm - N/A   Clear
6:56 AM 3.0 °F - -0.9 °F 84% 30.29 in 8.0 mi Calm Calm - N/A   Clear
7:56 AM 9.0 °F - 3.9 °F 80% 30.31 in 7.0 mi Calm Calm - N/A   Clear
8:56 AM 17.1 °F - 12.0 °F 81% 30.33 in 6.0 mi Calm Calm - N/A   Haze
9:56 AM 23.0 °F - 15.1 °F 72% 30.33 in 8.0 mi Calm Calm - N/A   Clear
10:56 AM 28.0 °F - 16.0 °F 61% 30.32 in 10.0 mi Calm Calm - N/A   Clear
11:56 AM 33.1 °F - 17.1 °F 52% 30.28 in 10.0 mi Calm Calm - N/A   Clear
12:56 PM 36.0 °F 33.3 °F 16.0 °F 44% 30.25 in 10.0 mi ENE 3.5 mph - N/A   Clear
1:56 PM 37.9 °F 35.5 °F 16.0 °F 41% 30.22 in 10.0 mi Variable 3.5 mph - N/A   Clear
2:56 PM 39.9 °F 37.8 °F 16.0 °F 38% 30.21 in 10.0 mi NE 3.5 mph - N/A   Clear
3:56 PM 39.9 °F 35.1 °F 17.1 °F 40% 30.20 in 10.0 mi NNE 6.9 mph - N/A   Clear
4:56 PM 34.0 °F 28.0 °F 17.1 °F 50% 30.19 in 10.0 mi NE 6.9 mph - N/A   Clear
5:56 PM 27.0 °F 21.6 °F 15.1 °F 61% 30.20 in 10.0 mi NE 4.6 mph - N/A   Clear
6:56 PM 24.1 °F 17.0 °F 14.0 °F 65% 30.21 in 10.0 mi NE 5.8 mph - N/A   Clear
7:56 PM 23.0 °F 15.8 °F 15.1 °F 72% 30.22 in 10.0 mi ENE 5.8 mph - N/A   Clear
8:56 PM 23.0 °F - 15.1 °F 72% 30.22 in 10.0 mi Calm Calm - N/A   Clear
9:56 PM 17.1 °F - 10.9 °F 77% 30.23 in 9.0 mi Calm Calm - N/A   Clear
10:56 PM 15.1 °F 6.4 °F 10.0 °F 80% 30.24 in 9.0 mi North 5.8 mph - N/A   Clear
11:56 PM 12.9 °F 3.8 °F 8.1 °F 81% 30.23 in 9.0 mi East 5.8 mph - N/A   Clear